sat.trackr.live / text

‹ back to catalog

STARLINK-2329

NORAD 47873 · 2021-021P

PAYLOAD ACTIVE UNKNOWN

§ Identity

Operator
Country
US
Launch date
2021-03-14
Launch site
AFETR
Launch vehicle
Mass (kg)
RCS (m²)

Purposes: comms

External: N2YO · Heavens-Above · Gunter

§ Orbital elements

Epoch: 2026-09-20T00:03:13.866048Z

Period
94.01 min
Inclination
53.1604°
Eccentricity
0.0001097
Mean motion
15.31716234 rev/d
Perigee alt
469.9 km
Apogee alt
471.4 km
Semi-major
6,848.8 km
B*
1.7029e-4
RAAN
71.1305°
Arg perigee
88.1274°
Mean anomaly
271.9853°
Rev number
30,619

§ Raw data

STARLINK-23291 47873U 21021P   26263.00224382  .00004925  00000+0  17029-3 0  99962 47873  53.1604  71.1305 0001097  88.1274 271.9853 15.31716234306191

JSON: /api/v1/satellites/47873 · /tle

For live sub-satellite position, see the globe view (requires WebGL).

§ Visibility from observer

Set your observer location to see the next 7 days of passes ≥ 10°. The values pass through the URL so the page stays shareable.

No JS? Fill the form by hand. The geolocation button needs JavaScript.